BEIDOU-3 G1

Last updated on Jan. 17, 2020, 4:31 a.m. UTC

1 43683U 18085A   20016.68368536 -.00000246  00000-0  00000+0 0  9992
2 43683   2.1036 262.1277 0000752  58.5335 185.5302  1.00274546  4566
UTC
Height (km)
Latitude
Longitude
Inclination
Orbital Period
UTC large
Height (km)
Speed (km/s)
/
Latitude / Longitude
Inclination (degrees)
Orbital Period (minutes)
Azimuth
Elevation
Range (km)
Doppler Factor
iOS Compass Heading
iOS Angle

Next 30 passes for location: Hong Kong

Rise time Rise Azimuth (degrees) Set time Set Azimuth (degrees) Duration Max altitude (degrees)

No matching passes for this satellites